In Rescue
 
Wind Gusting 00 knots
06
March 20, 2019 9:15 PM EDT
Weather Information
Wind Direction
  190 °
Wind Speed
  06 kt (7 mph)
Wind Gust
  00 kt (0 mph)
Altimeter
29.99 in
Visibility
10 SM
Temperature
04° C
39° F
Dewpoint
03° C
37° F
Humidity
93%
1hr Rain Fall
00.00 in.
24hr Rain Fall
00.01 in.
Sky Condition
Overcast @ 3,100 ft
VFR

METAR KONZ 210115Z AUTO 19006KT 10SM OVC031 04/03 A2999 RMK AO2 T00390025

FAA Disclaimer: The data displayed is for advisory purposes only and is not to be used for flight planning or operations.